Domov               UVHVVR             MKGP            O straneh              
ZDRAVSTVENO VARSTVO RASTLIN
  MREŽA AGROMET. POSTAJ
 ► PROGNOSTIČNA OBVESTILA
AGROMETEOROLOŠKI PODATKI -
ARSO
OBVLADOVANJE TVEGANJ ZARADI
NEUGODNIH VREMENSKIH RAZMER
  ► NARAVNE NESREČE
  ► SUŠA/MOČA
  ► NAMAKANJE
  ► ŽLED (gozdarstvo)
KARTOGRAFSKI PRIKAZI
SPLETNE POVEZAVE
PROJEKTI IN PUBLIKACIJE

AGROMETEOROLOŠKA MREŽA: VREMENSKE POSTAJE IN FENOLOŠKA OPAZOVANJA

Pregled podatkov za lokacijo Vipolže, meteorološka postaja 44544

Pregled senzorjev na lokaciji

ID Ime Zadnja
vrednost
Datum
zadnje
spremembe
Tip
senzorja
3083 Temperatura 2 m (°C) 14,97 °C 12.12.2017 01:00 50YA
3084 Relativna vlaga 2 m (% RH) 74,47 % RH 12.12.2017 01:00 50YA
3085 Omočenost lista (U) 6 U 12.12.2017 01:00 A730WET
3086 Padavine (mm) 0 mm 12.12.2017 01:00 Rain-O-Matic
4029 Hitrost vetra (km/h) 11,23 km/h 12.12.2017 01:00 Generic 200 km/h
4030 Smer vetra (°) 209,74 ° 12.12.2017 01:00 Generic 0 - 360

Pregled podatkov zadnjih 24 ur

Zap.
št.
Datum in čas Vipolže
Hitrost
vetra
Omočenost
lista
Padavine Relativna
vlaga
2
m
Smer
vetra
Temperatura
2
m
0 12.12.2017 01:00 11,23 6 0 74,47 209,74 14,97
1 12.12.2017 00:30 13,65 1 0 74,45 209,56 15
2 12.12.2017 00:00 11,71 0 0 73,69 202,27 15,12
3 11.12.2017 23:30 11,37 0 0 74 202,07 15,03
4 11.12.2017 23:00 7,76 0 0 75,74 225,89 14,76
5 11.12.2017 22:30 10,54 0 0 77,29 228,29 14,52
6 11.12.2017 22:00 4,14 1 0 84,11 200,96 13,55
7 11.12.2017 21:30 0,23 10 0,4 98,4 180,98 12,05
8 11.12.2017 21:00 1,67 10 0,6 99,18 81,22 12,02
9 11.12.2017 20:30 2,3 10 1,2 95,64 89,2 12,07
10 11.12.2017 20:00 0,34 10 0,8 91,23 111,73 12,48
11 11.12.2017 19:30 0,96 10 0,6 86,32 152,99 13,06
12 11.12.2017 19:00 6,7 10 0,2 79,92 233,24 13,98
13 11.12.2017 18:30 7,85 10 0 76,16 224,64 14,4
14 11.12.2017 18:00 7,95 10 0 74,21 207,81 14,53
15 11.12.2017 17:30 7,8 6 0 71,86 229,72 14,74
16 11.12.2017 17:00 9,32 0 0 70,06 234,98 14,81
17 11.12.2017 16:30 10,34 2 0 70,73 232,75 14,67
18 11.12.2017 16:00 10,05 10 0,2 77,65 229,39 13,85
19 11.12.2017 15:30 8,67 10 0,2 84,82 230,76 13,28
20 11.12.2017 15:00 4,69 9 0 100 227,45 12,2
21 11.12.2017 14:30 3,13 7 0,2 100 192,05 11,74
22 11.12.2017 14:00 1,06 10 0,2 100 231,29 11,36
23 11.12.2017 13:30 1,41 10 0,8 100 72,57 10,32
24 11.12.2017 13:00 0,48 9 0,8 100 71,91 10,43
25 11.12.2017 12:30 0,18 9 1,8 100 201,39 10,44
26 11.12.2017 12:00 0,38 9 2,4 100 170,71 9,57
27 11.12.2017 11:30 0,17 9 1,8 100 6,59 8,27
28 11.12.2017 11:00 1,05 8 2,6 100 330,03 8,14
29 11.12.2017 10:30 0,58 9 3 100 5,27 7,08
30 11.12.2017 10:00 1,66 10 2,2 100 295,99 6,73
31 11.12.2017 09:30 0,21 8 3,2 100 283,61 6,08
32 11.12.2017 09:00 0,06 4 2,4 100 139,01 5,91
33 11.12.2017 08:30 1,41 3 2,2 100 277,77 6,04
34 11.12.2017 08:00 1,34 3 3 100 54,43 5,76
35 11.12.2017 07:30 0,08 2 2,4 100 323,11 5,55
36 11.12.2017 07:00 1,76 3 3 100 12,2 5,58
37 11.12.2017 06:30 0,99 3 1,8 100 42,01 5,25
38 11.12.2017 06:00 0,74 3 2,8 100 65,92 5,28
39 11.12.2017 05:30 1,47 3 3,6 100 57,49 5,09
40 11.12.2017 05:00 1,14 3 2,8 100 31,95 5,15
41 11.12.2017 04:30 1,36 3 2,8 100 43,83 5,07
42 11.12.2017 04:00 0,74 3 2 100 39,48 4,37
43 11.12.2017 03:30 0,23 3 2,8 100 220,86 3,79
44 11.12.2017 03:00 1,63 3 2,4 100 290,94 4,15
45 11.12.2017 02:30 3,15 3 3 100 138,1 4,06
46 11.12.2017 02:00 5,16 3 3,4 100 40,28 3,81
© 2011 Ministrstvo za kmetijstvo, gozdarstvo in prehrano. Vse pravice pridržane.